Location: Bothwell
(42.3833°S, 147.0000°E)
Time: 09:17:45
(UTC+11:00)

FENGYUN 1C DEB - Visible Passes

Search period start: 01 April 2023 00:00
Search period end: 10 April 2023 23:00
Orbit: 786 x 794 km, 99.3° (Epoch: 31 March)

Date Brightness Start Highest point End Pass type
(mag) Time Alt. Az. Time Alt. Az. Time Alt. Az.
01 Apr ? 21:03:28 10° SSE 21:08:23 58° E 21:08:23 58° E visible
01 Apr ? 22:43:53 10° SSW 22:47:37 20° WSW 22:49:03 18° W visible
02 Apr ? 05:45:28 10° E 05:48:20 15° ESE 05:51:13 10° SSE visible
02 Apr ? 19:34:23 10° SE 19:37:47 28° ESE 19:37:47 28° ESE visible
02 Apr ? 21:13:42 10° S 21:18:26 34° WSW 21:18:27 34° WSW visible
03 Apr ? 19:05:55 10° SE 19:07:14 14° ESE 19:07:14 14° ESE visible
03 Apr ? 20:43:54 10° S 20:47:55 48° SSW 20:47:55 48° SSW visible
04 Apr ? 20:14:21 10° SSE 20:17:25 36° SSE 20:17:25 36° SSE visible
04 Apr ? 21:55:12 10° SSW 21:58:05 16° SW 21:58:05 16° SW visible
05 Apr ? 05:55:40 10° E 05:59:06 18° ESE 06:02:34 10° SSE visible
05 Apr ? 19:45:05 10° SSE 19:46:57 21° SE 19:46:57 21° SE visible
05 Apr ? 21:24:46 10° S 21:27:38 24° SW 21:27:38 24° SW visible
06 Apr ? 19:16:18 10° SE 19:16:30 11° SE 19:16:30 11° SE visible
06 Apr ? 20:54:47 10° S 20:57:11 26° S 20:57:11 26° S visible
07 Apr ? 20:25:06 10° SSE 20:26:44 21° SSE 20:26:44 21° SSE visible
07 Apr ? 22:06:29 10° SSW 22:07:25 12° SW 22:07:25 12° SW visible
08 Apr ? 06:05:51 10° ENE 06:09:43 22° ESE 06:13:38 10° SSE visible
08 Apr ? 19:55:41 10° SSE 19:56:19 13° SSE 19:56:19 13° SSE visible
08 Apr ? 21:35:43 10° S 21:37:00 16° SSW 21:37:00 16° SSW visible
09 Apr ? 05:38:33 10° E 05:40:34 12° SE 05:42:36 10° SSE visible
09 Apr ? 21:05:34 10° S 21:06:35 16° S 21:06:35 16° S visible
10 Apr ? 20:35:44 10° SSE 20:36:09 12° SSE 20:36:09 12° SSE visible
